Погода в Мырыле

Россия / Республика Саха (Якутия)     61°50′05″N   133°38′35″E
темп.,
°C
ветер,
м/с
пор.,
м/с
влажн.,
%
обл.,
%
осадки,
мм/ч
давл.,
гПа
погр.,
м
1 марта, пн
пн100:00−28юз1299100 0.0 102319
03:00−27зсз1299100 0.1 102439
06:00−30зюз1298100 0.0 102520
09:00−27зюз2596100 0.1 1025332
12:00−25з2489100 0.1 1025807
15:00−25з2487100 0.1 1025938
18:00−27з1297100 0.1 102639
21:00−28з1199100 0.1 102619
2 марта, вт
вт200:00−30з119999 0.0 102619
03:00−32зюз1110099 0.1 102619
06:00−34з11100100 0.0 102619
09:00−31з1198100 0.0 1026102
12:00−28з2391100 0.0 1025471
15:00−27зсз2392100 0.1 1025669
18:00−28з1199100 0.1 102519
21:00−29з1199100 0.2 102520
3 марта, ср
ср300:00−29з1199100 0.1 102519
03:00−30з1199100 0.1 102419
06:00−30з1199100 0.1 102319
09:00−29з1197100 0.1 1022164
12:00−27зсз1287100 0.1 1021573
15:00−27зсз1287100 0.1 1019740
18:00−29сз1197100 0.1 101819
21:00−30з1199100 0.1 101819
4 марта, чт
чт400:00−30з1299100 0.1 101797
03:00−31з1399100 0.1 1016114
06:00−32з2598100 0.1 1016211
09:00−31зсз3595100 0.1 1017457
12:00−30зсз3489100 0.1 1018721
15:00−29зсз3588100 0.1 1018844
18:00−33з2396100 0.0 101953
21:00−35з2399100 0.1 102048
5 марта, пт
пт500:00−35з2499100 0.0 1021122
03:00−35з3897100 0.0 1021338
06:00−35зсз3795100 0.0 1022396
09:00−35зсз3794100 0.1 1022412
12:00−33зсз3692100 0.0 1022469
15:00−31зсз3791100 0.0 1023525
18:00−31зсз3896100 0.1 1023525
21:00−31зсз3897100 0.2 1023497